Weather History for Honolulu, HI

Change the Weather History Date:

Wednesday, December 5, 2012

  Actual Average Record
Temperature  
Mean Temperature 77 °F 76 °F  
Max Temperature 81 °F 82 °F 88 °F (1983)
Min Temperature 73 °F 70 °F 61 °F (1956)
Degree Days  
Heating Degree Days 0 0  
Month to date heating degree days 0 0  
Since 1 July heating degree days 0 0  
Cooling Degree Days 12 11  
Month to date cooling degree days 53 55  
Year to date cooling degree days 4245 4381  
Growing Degree Days 26 (Base 50)    
Moisture  
Dew Point 72 °F    
Average Humidity 87    
Maximum Humidity 100    
Minimum Humidity 74    
Precipitation  
Precipitation T in 0.09 in 1.41 in (1917)
Month to date precipitation 0.01 0.40  
Year to date precipitation 8.60 14.26  
Snow  
Snow 0.00 in - - ()
Month to date snowfall 0.0  
Since 1 July snowfall 0.0  
Snow Depth 0.00 in    
Sea Level Pressure  
Sea Level Pressure 30.04 in    
Wind  
Wind Speed 5 mph (ENE)    
Max Wind Speed 14 mph    
Max Gust Speed 16 mph    
Visibility 10 miles    
Events Rain , Thunderstorm    
T = Trace of Precipitation, MM = Missing Value Source: NWS Daily Summary

Daily Weather History Graph

Daily Weather History Graph

Search for Another Location

Airport:

Trip Planner

Search our weather history database for the weather conditions in past years. The results will help you decide how hot, cold, wet, or windy it might be!

Date:

Astronomy

Dec. 05, 2012 Rise Set
Actual Time 6:55 AM HST 5:49 PM HST
Civil Twilight 6:31 AM HST 6:13 PM HST
Nautical Twilight 6:04 AM HST 6:41 PM HST
Astronomical Twilight 5:36 AM HST 7:08 PM HST
Moon No Moon Rise 11:59 AM HST (12/5)
Length of Visible Light 11h 41m
Length of Day
10h 53m
Waning Gibbous, 58% of the Moon is Illuminated
Dec 5
Waning Gibbous
Dec 6
Last Quarter
Dec 12
New
Dec 19
First Quarter
Dec 28
Full

Hourly Weather History & Observations

Time (HST) Temp. Heat Index Dew Point Humidity Pressure Visibility Wind Dir Wind Speed Gust Speed Precip Events Conditions
12:00 AM 75.2 °F - 73.4 °F 94% 30.06 in 8.0 mi West 6.9 mph - 0.01 in Rain Rain
12:53 AM 73.9 °F - 72.0 °F 93% 30.06 in 10.0 mi North 4.6 mph - 0.01 in   Mostly Cloudy
1:07 AM 73.4 °F - 71.6 °F 94% 30.06 in 10.0 mi North 6.9 mph - N/A Thunderstorm Thunderstorm
1:40 AM 73.4 °F - 71.6 °F 94% 30.05 in 10.0 mi Calm Calm - N/A   Scattered Clouds
1:53 AM 73.9 °F - 73.0 °F 97% 30.05 in 10.0 mi North 4.6 mph - N/A   Scattered Clouds
2:53 AM 73.9 °F - 72.0 °F 93% 30.04 in 10.0 mi NNE 4.6 mph - N/A   Mostly Cloudy
4:53 AM 75.0 °F - 73.0 °F 94% 30.03 in 10.0 mi East 3.5 mph - N/A   Partly Cloudy
5:53 AM 73.0 °F - 73.0 °F 100% 30.06 in 10.0 mi WNW 5.8 mph - N/A   Partly Cloudy
6:53 AM 73.9 °F - 73.0 °F 97% 30.06 in 10.0 mi Calm Calm - N/A   Mostly Cloudy
7:31 AM 75.2 °F - 71.6 °F 89% 30.07 in 10.0 mi Calm Calm - N/A   Mostly Cloudy
7:48 AM 75.2 °F - 71.6 °F 89% 30.07 in 10.0 mi East 8.1 mph - N/A   Scattered Clouds
7:53 AM 75.9 °F - 72.0 °F 87% 30.08 in 10.0 mi East 4.6 mph - N/A   Scattered Clouds
8:53 AM 77.0 °F - 71.1 °F 82% 30.08 in 10.0 mi Calm Calm - N/A   Overcast
9:53 AM 79.0 °F - 71.1 °F 77% 30.10 in 10.0 mi NNW 3.5 mph - N/A   Mostly Cloudy
10:53 AM 80.1 °F 83.6 °F 71.1 °F 74% 30.08 in 10.0 mi NNW 4.6 mph - N/A   Scattered Clouds
11:53 AM 80.1 °F 83.6 °F 71.1 °F 74% 30.05 in 10.0 mi South 4.6 mph - N/A   Scattered Clouds
12:53 PM 79.0 °F - 72.0 °F 79% 30.01 in 10.0 mi South 8.1 mph - N/A   Scattered Clouds
1:53 PM 79.0 °F - 72.0 °F 79% 29.99 in 10.0 mi SSE 8.1 mph - N/A   Scattered Clouds
2:53 PM 79.0 °F - 72.0 °F 79% 29.99 in 10.0 mi South 6.9 mph - N/A   Scattered Clouds
3:53 PM 78.1 °F - 73.0 °F 84% 30.01 in 10.0 mi SSW 5.8 mph - N/A   Scattered Clouds
4:53 PM 78.1 °F - 73.0 °F 84% 30.01 in 10.0 mi SSE 4.6 mph - N/A   Scattered Clouds
5:53 PM 78.1 °F - 71.1 °F 79% 30.02 in 10.0 mi NNE 4.6 mph - N/A   Scattered Clouds
6:53 PM 77.0 °F - 70.0 °F 79% 30.02 in 10.0 mi NE 6.9 mph - N/A   Scattered Clouds
7:53 PM 77.0 °F - 70.0 °F 79% 30.02 in 10.0 mi ENE 9.2 mph - N/A   Scattered Clouds
8:53 PM 75.9 °F - 70.0 °F 82% 30.03 in 10.0 mi ENE 6.9 mph - N/A   Scattered Clouds
9:53 PM 75.0 °F - 69.1 °F 82% 30.03 in 10.0 mi NE 3.5 mph - N/A   Scattered Clouds
10:53 PM 75.0 °F - 69.1 °F 82% 30.03 in 10.0 mi East 3.5 mph - N/A   Partly Cloudy
11:53 PM 73.9 °F - 69.1 °F 85% 30.01 in 10.0 mi Calm Calm - N/A   Partly Cloudy